Location: Vesunti
(61.5000°N, 22.8333°E)
Time: 21:20:36
(UTC+00:00)

CZ-2D R/B - Pass Details

Date: 17 February 2020
Orbit: 792 x 845 km, 98.7° (Epoch: 29 March)

Event Time Altitude Azimuth Distance (km) Brightness Sun altitude
Rises 04:36:09 0° 31° (NNE) 3,311 5.7 -11.5°
Reaches altitude 10° 04:40:46 10° 353° (N) 2,376 4.4 -10.9°
Maximum altitude 04:41:41 10° 343° (NNW) 2,344 4.3 -10.8°
Drops below altitude 10° 04:42:35 10° 333° (NNW) 2,375 4.2 -10.7°
Enters shadow 04:44:33 - 314° (NW) 2,640 4.3 -10.5°
